DLH579 FAOR-EDDM

Flight info

Callsign DLH579
Flight time N/A
Altitude 39000
Route VASUR3B VASUR UQ41 EVIPI DCT ETMIT UM214 RAPOL UA607 DIR UB730 DJA UA605 BARKA UG362 EBA UP161 TUC UM725 SIRVI UG727 NIBEL DCT BETOT DCT SUMIR DCT NAXAV DCT SOTOV T101 BETOS BETOS1A
Aircraft A359/H-SADE2E3GHIJ1J2J3J4J5M1P2RWXYZ/LB1D1

Departure

Time 2026-05-01 11:45
Airport O.R. Tambo International Airport (FAOR)

Arrival

Time N/A
Airport Munich Airport (EDDM)
Time Latitude Longitude Altitude Speed Heading
2026-05-01 11:12 -26.12898 28.23403 5553 ft 0 kts 186°
2026-05-01 11:34 -26.12887 28.23404 5556 ft 4 kts 186°
2026-05-01 11:34 -26.12860 28.23407 5553 ft 4 kts 186°
2026-05-01 11:34 -26.12838 28.23410 5554 ft 4 kts 185°
2026-05-01 11:35 -26.12813 28.23408 5554 ft 4 kts 151°
2026-05-01 11:35 -26.12799 28.23390 5554 ft 3 kts 96°
2026-05-01 11:35 -26.12796 28.23361 5554 ft 4 kts 96°
2026-05-01 11:35 -26.12796 28.23354 5554 ft 0 kts 96°
2026-05-01 11:38 -26.12796 28.23355 5554 ft 1 kts 96°
2026-05-01 11:38 -26.12798 28.23376 5553 ft 6 kts 96°
2026-05-01 11:39 -26.12806 28.23458 5556 ft 15 kts 96°
2026-05-01 11:39 -26.12817 28.23577 5555 ft 16 kts 96°
2026-05-01 11:39 -26.12828 28.23696 5555 ft 16 kts 96°
2026-05-01 11:39 -26.12795 28.23800 5555 ft 15 kts 34°
2026-05-01 11:40 -26.12696 28.23836 5554 ft 15 kts 15°
2026-05-01 11:40 -26.12592 28.23867 5552 ft 16 kts 15°
2026-05-01 11:40 -26.12477 28.23903 5549 ft 18 kts 15°
2026-05-01 11:40 -26.12356 28.23940 5548 ft 18 kts 16°
2026-05-01 11:41 -26.12228 28.23980 5547 ft 20 kts 15°
2026-05-01 11:41 -26.12093 28.24022 5545 ft 20 kts 15°
2026-05-01 11:41 -26.11952 28.24065 5543 ft 22 kts 15°
2026-05-01 11:41 -26.11798 28.24113 5532 ft 24 kts 15°
2026-05-01 11:42 -26.11640 28.24162 5532 ft 23 kts 15°
2026-05-01 11:42 -26.11485 28.24209 5530 ft 24 kts 15°
2026-05-01 11:42 -26.11328 28.24258 5530 ft 22 kts 15°
2026-05-01 11:42 -26.11178 28.24304 5524 ft 24 kts 16°
2026-05-01 11:43 -26.11019 28.24354 5520 ft 18 kts 15°
2026-05-01 11:43 -26.10909 28.24419 5517 ft 19 kts 51°
2026-05-01 11:43 -26.10855 28.24528 5514 ft 11 kts 66°
2026-05-01 11:44 -26.10920 28.24588 5515 ft 6 kts 194°
2026-05-01 11:44 -26.10966 28.24573 5517 ft 14 kts 196°
2026-05-01 11:44 -26.11254 28.24482 5527 ft 77 kts 195°
2026-05-01 11:44 -26.11989 28.24251 5535 ft 141 kts 195°
2026-05-01 11:45 -26.13117 28.23914 5619 ft 188 kts 197°
2026-05-01 11:45 -26.14356 28.23572 6519 ft 181 kts 201°
2026-05-01 11:45 -26.15587 28.23249 7192 ft 181 kts 201°
2026-05-01 11:45 -26.16854 28.22915 7515 ft 193 kts 200°
2026-05-01 11:46 -26.18204 28.22554 7844 ft 206 kts 201°
2026-05-01 11:46 -26.19632 28.22163 8224 ft 217 kts 200°
2026-05-01 11:46 -26.21133 28.21736 8648 ft 227 kts 201°
2026-05-01 11:46 -26.22694 28.21279 9054 ft 238 kts 201°
2026-05-01 11:47 -26.24353 28.20762 9250 ft 258 kts 203°
2026-05-01 11:47 -26.26103 28.20030 9467 ft 278 kts 209°
2026-05-01 11:47 -26.27880 28.19031 9816 ft 291 kts 218°
2026-05-01 11:47 -26.28949 28.18113 10100 ft 294 kts 231°
2026-05-01 11:48 -26.30299 28.15592 10968 ft 288 kts 256°
2026-05-01 11:48 -26.30508 28.13338 11284 ft 300 kts 274°
2026-05-01 11:48 -26.30413 28.10966 11587 ft 314 kts 274°
2026-05-01 11:48 -26.30254 28.08489 11961 ft 326 kts 275°
2026-05-01 11:49 -26.30000 28.06829 12308 ft 329 kts 288°
2026-05-01 11:49 -26.28828 28.04639 12901 ft 336 kts 311°
2026-05-01 11:49 -26.26982 28.03014 13547 ft 342 kts 322°
2026-05-01 11:49 -26.24998 28.01515 14096 ft 346 kts 322°
2026-05-01 11:50 -26.22964 28.00035 14554 ft 352 kts 324°
2026-05-01 11:50 -26.20817 27.98659 14985 ft 359 kts 328°
2026-05-01 11:50 -26.18527 27.97487 15439 ft 365 kts 334°
2026-05-01 11:50 -26.16112 27.96597 15891 ft 372 kts 341°
2026-05-01 11:51 -26.13566 27.95936 16325 ft 378 kts 343°
2026-05-01 11:51 -26.10980 27.95321 16796 ft 381 kts 344°
2026-05-01 11:51 -26.08373 27.94693 17226 ft 385 kts 343°
2026-05-01 11:51 -26.05745 27.94050 17653 ft 388 kts 343°
2026-05-01 11:52 -26.03084 27.93392 18040 ft 393 kts 344°
2026-05-01 11:52 -26.00429 27.92734 18398 ft 397 kts 344°
2026-05-01 11:52 -25.97713 27.92058 18763 ft 401 kts 344°
2026-05-01 11:52 -25.94968 27.91453 19156 ft 405 kts 349°
2026-05-01 11:53 -25.92141 27.91186 19540 ft 410 kts 353°
2026-05-01 11:53 -25.89284 27.91035 19923 ft 413 kts 354°
2026-05-01 11:53 -25.86400 27.90893 20316 ft 415 kts 354°
2026-05-01 11:53 -25.83502 27.90747 20716 ft 418 kts 353°
2026-05-01 11:54 -25.80590 27.90599 21141 ft 420 kts 353°
2026-05-01 11:54 -25.77656 27.90446 21530 ft 423 kts 353°
2026-05-01 11:54 -25.74708 27.90292 21968 ft 425 kts 353°
2026-05-01 11:54 -25.71744 27.90137 22394 ft 428 kts 353°
2026-05-01 11:55 -25.68801 27.89983 22801 ft 430 kts 353°
2026-05-01 11:55 -25.65797 27.89825 23214 ft 433 kts 353°
2026-05-01 11:55 -25.62777 27.89667 23643 ft 436 kts 353°
2026-05-01 11:55 -25.59734 27.89508 24031 ft 438 kts 353°
2026-05-01 11:56 -25.56682 27.89349 24469 ft 439 kts 353°
2026-05-01 11:56 -25.53625 27.89183 24945 ft 438 kts 352°
2026-05-01 11:56 -25.50571 27.88993 25456 ft 438 kts 352°
2026-05-01 11:56 -25.47527 27.88790 25915 ft 439 kts 352°
2026-05-01 11:57 -25.44480 27.88582 26404 ft 439 kts 351°
2026-05-01 11:57 -25.41420 27.88376 26870 ft 440 kts 351°
2026-05-01 11:57 -25.38389 27.88174 27332 ft 441 kts 351°
2026-05-01 11:57 -25.35322 27.87972 27804 ft 442 kts 351°
2026-05-01 11:58 -25.32246 27.87772 28266 ft 443 kts 351°
2026-05-01 11:58 -25.29164 27.87573 28707 ft 444 kts 351°
2026-05-01 11:58 -25.22977 27.87175 29628 ft 444 kts 350°
2026-05-01 11:59 -25.19902 27.86979 30188 ft 442 kts 350°
2026-05-01 11:59 -25.16821 27.86782 30527 ft 444 kts 350°
2026-05-01 11:59 -25.13719 27.86581 30833 ft 446 kts 350°
2026-05-01 12:00 -25.07510 27.86178 31474 ft 448 kts 350°
2026-05-01 12:00 -25.04394 27.85978 31781 ft 449 kts 349°
2026-05-01 12:00 -24.98180 27.85579 32391 ft 451 kts 349°
2026-05-01 12:01 -24.95050 27.85378 32632 ft 452 kts 349°
2026-05-01 12:01 -24.91897 27.85175 32864 ft 454 kts 349°
2026-05-01 12:01 -24.88734 27.84972 33129 ft 455 kts 349°
2026-05-01 12:01 -24.85563 27.84767 33386 ft 456 kts 349°
2026-05-01 12:02 -24.82409 27.84456 33646 ft 453 kts 346°
2026-05-01 12:02 -24.79292 27.84031 34046 ft 450 kts 345°
2026-05-01 12:02 -24.76196 27.83566 34422 ft 447 kts 345°
2026-05-01 12:02 -24.73119 27.83099 34701 ft 446 kts 345°
2026-05-01 12:03 -24.70078 27.82649 34945 ft 446 kts 345°
2026-05-01 12:03 -24.66993 27.82207 35083 ft 449 kts 346°
2026-05-01 12:03 -24.63889 27.81774 35224 ft 451 kts 346°
2026-05-01 12:03 -24.60771 27.81349 35462 ft 450 kts 346°
2026-05-01 12:04 -24.57663 27.80933 35754 ft 449 kts 346°
2026-05-01 12:04 -24.54570 27.80522 36025 ft 448 kts 346°
2026-05-01 12:04 -24.51480 27.80112 36268 ft 447 kts 346°
2026-05-01 12:04 -24.48391 27.79702 36494 ft 446 kts 346°
2026-05-01 12:05 -24.45301 27.79289 36612 ft 448 kts 346°
2026-05-01 12:05 -24.39127 27.78463 37032 ft 447 kts 346°
2026-05-01 12:05 -24.36040 27.78048 37181 ft 447 kts 346°
2026-05-01 12:06 -24.32987 27.77638 37387 ft 447 kts 346°
2026-05-01 12:06 -24.29902 27.77226 37612 ft 445 kts 346°
2026-05-01 12:06 -24.26828 27.76817 37804 ft 445 kts 346°
2026-05-01 12:06 -24.23748 27.76407 37953 ft 445 kts 346°
2026-05-01 12:07 -24.20672 27.75997 38132 ft 444 kts 346°
2026-05-01 12:07 -24.17610 27.75590 38303 ft 444 kts 346°
2026-05-01 12:07 -24.14535 27.75181 38446 ft 443 kts 346°
2026-05-01 12:07 -24.11463 27.74771 38498 ft 445 kts 346°
2026-05-01 12:08 -24.05347 27.73955 38723 ft 445 kts 346°
2026-05-01 12:08 -24.02267 27.73546 38874 ft 444 kts 346°
2026-05-01 12:08 -23.99192 27.73138 38983 ft 444 kts 346°
2026-05-01 12:09 -23.96120 27.72730 39096 ft 444 kts 346°
2026-05-01 12:09 -23.93042 27.72320 39156 ft 445 kts 346°
2026-05-01 12:09 -23.86894 27.71502 39147 ft 448 kts 346°
2026-05-01 12:10 -23.77566 27.70266 39156 ft 451 kts 346°
2026-05-01 12:11 -23.68243 27.69034 39133 ft 451 kts 346°
2026-05-01 12:11 -23.62014 27.68211 39135 ft 451 kts 346°
2026-05-01 12:12 -23.55780 27.67387 39119 ft 452 kts 346°
2026-05-01 12:12 -23.49512 27.66558 39121 ft 454 kts 346°
2026-05-01 12:13 -23.43239 27.65733 39113 ft 454 kts 346°
2026-05-01 12:13 -23.37007 27.64913 39102 ft 454 kts 346°
2026-05-01 12:14 -23.30720 27.64086 39090 ft 454 kts 346°
2026-05-01 12:14 -23.24432 27.63258 39094 ft 456 kts 346°
2026-05-01 12:15 -23.18107 27.62460 39086 ft 458 kts 347°
2026-05-01 12:15 -23.11789 27.61845 39078 ft 459 kts 348°
2026-05-01 12:16 -23.05422 27.61260 39081 ft 458 kts 348°
2026-05-01 12:16 -22.99054 27.60651 39068 ft 460 kts 348°
2026-05-01 12:17 -22.92671 27.60023 39060 ft 461 kts 348°
2026-05-01 12:17 -22.86275 27.59392 39059 ft 461 kts 348°
2026-05-01 12:18 -22.79924 27.58767 39051 ft 460 kts 348°
2026-05-01 12:18 -22.73544 27.58139 39051 ft 460 kts 348°
2026-05-01 12:19 -22.67152 27.57511 39038 ft 460 kts 348°
2026-05-01 12:19 -22.60766 27.56883 39039 ft 460 kts 348°
2026-05-01 12:20 -22.54379 27.56257 39039 ft 461 kts 348°
2026-05-01 12:20 -22.48026 27.55635 39026 ft 461 kts 348°
2026-05-01 12:21 -22.41622 27.55008 39036 ft 463 kts 348°
2026-05-01 12:21 -22.35175 27.54377 39024 ft 464 kts 348°
2026-05-01 12:22 -22.28768 27.53752 39025 ft 464 kts 348°
2026-05-01 12:22 -22.22322 27.53124 39015 ft 464 kts 348°
2026-05-01 12:23 -22.15930 27.52500 39013 ft 464 kts 348°
2026-05-01 12:23 -22.09459 27.51868 39009 ft 466 kts 348°
2026-05-01 12:24 -22.02987 27.51239 39008 ft 466 kts 348°
2026-05-01 12:24 -21.96517 27.50611 39003 ft 466 kts 348°
2026-05-01 12:25 -21.86782 27.50080 39000 ft 471 kts 352°
2026-05-01 12:26 -21.80220 27.49899 39000 ft 471 kts 352°
2026-05-01 12:26 -21.70375 27.49551 38998 ft 471 kts 351°
2026-05-01 12:27 -21.60544 27.49156 38976 ft 471 kts 351°
2026-05-01 12:28 -21.50732 27.48760 38993 ft 474 kts 351°
2026-05-01 12:29 -21.40845 27.48366 38992 ft 474 kts 351°
2026-05-01 12:29 -21.30957 27.47973 38979 ft 474 kts 352°
2026-05-01 12:30 -21.21047 27.47579 38992 ft 474 kts 352°
2026-05-01 12:31 -21.14533 27.46849 39000 ft 466 kts 342°
2026-05-01 12:31 -21.08268 27.45304 38997 ft 464 kts 340°
2026-05-01 12:32 -21.01983 27.43609 38982 ft 464 kts 340°
2026-05-01 12:32 -20.92597 27.41068 38998 ft 466 kts 340°
2026-05-01 12:33 -20.86301 27.39386 38997 ft 466 kts 340°
2026-05-01 12:33 -20.80007 27.37710 38996 ft 466 kts 340°
2026-05-01 12:34 -20.74763 27.36315 38980 ft 466 kts 341°
2026-05-01 12:34 -20.68444 27.34634 38996 ft 468 kts 341°
2026-05-01 12:35 -20.62114 27.32951 38996 ft 468 kts 341°
2026-05-01 12:35 -20.55819 27.31280 38995 ft 468 kts 341°
2026-05-01 12:36 -20.49476 27.29597 38995 ft 468 kts 341°
2026-05-01 12:36 -20.43169 27.27924 38995 ft 469 kts 341°
2026-05-01 12:37 -20.36821 27.26242 38993 ft 470 kts 341°
2026-05-01 12:37 -20.30460 27.24559 38993 ft 470 kts 341°
2026-05-01 12:38 -20.24096 27.22877 38985 ft 470 kts 341°
2026-05-01 12:38 -20.17743 27.21198 38964 ft 470 kts 342°
2026-05-01 12:39 -20.11417 27.19527 38983 ft 472 kts 342°
2026-05-01 12:39 -20.05027 27.17845 38977 ft 473 kts 342°
2026-05-01 12:40 -19.98632 27.16169 38978 ft 472 kts 341°
2026-05-01 12:40 -19.92254 27.14494 38973 ft 472 kts 341°
2026-05-01 12:41 -19.85885 27.12811 38974 ft 472 kts 341°
2026-05-01 12:41 -19.79509 27.11128 38971 ft 472 kts 341°
2026-05-01 12:42 -19.73129 27.09449 38969 ft 472 kts 341°
2026-05-01 12:42 -19.66754 27.07773 38969 ft 472 kts 341°
2026-05-01 12:43 -19.60415 27.06108 38957 ft 472 kts 342°
2026-05-01 12:43 -19.54012 27.04427 38969 ft 474 kts 342°
2026-05-01 12:44 -19.47602 27.02747 38968 ft 474 kts 342°
2026-05-01 12:45 -19.34817 26.99406 38969 ft 474 kts 342°
2026-05-01 12:45 -19.28399 26.97727 38967 ft 475 kts 342°
2026-05-01 12:46 -19.21970 26.96047 38971 ft 476 kts 342°
2026-05-01 12:46 -19.15533 26.94369 38968 ft 476 kts 342°
2026-05-01 12:47 -19.09126 26.92700 38972 ft 476 kts 342°
2026-05-01 12:47 -19.02685 26.91028 38969 ft 476 kts 342°
2026-05-01 12:48 -18.96230 26.89345 38980 ft 479 kts 342°
2026-05-01 12:48 -18.89747 26.87657 38980 ft 480 kts 343°
2026-05-01 12:49 -18.83257 26.85973 38976 ft 479 kts 342°
2026-05-01 12:49 -18.76822 26.84304 38985 ft 478 kts 342°
2026-05-01 12:50 -18.70359 26.82626 38982 ft 479 kts 343°
2026-05-01 12:50 -18.63860 26.80941 38988 ft 481 kts 343°
2026-05-01 12:51 -18.57348 26.79256 38985 ft 481 kts 343°
2026-05-01 12:52 -18.47578 26.76730 38983 ft 481 kts 343°
2026-05-01 12:52 -18.37839 26.74208 38974 ft 483 kts 343°
2026-05-01 12:53 -18.28040 26.71678 38969 ft 484 kts 343°
2026-05-01 12:54 -18.21493 26.69989 38966 ft 484 kts 343°
2026-05-01 12:54 -18.11725 26.67472 38962 ft 484 kts 343°
2026-05-01 12:55 -18.01873 26.64937 38960 ft 486 kts 343°
2026-05-01 12:56 -17.95301 26.63247 38963 ft 486 kts 343°
2026-05-01 12:56 -17.88725 26.61557 38963 ft 486 kts 343°
2026-05-01 12:57 -17.82194 26.59880 38966 ft 486 kts 344°
2026-05-01 12:57 -17.72329 26.57349 38966 ft 487 kts 344°
2026-05-01 12:58 -17.65743 26.55662 38972 ft 487 kts 343°
2026-05-01 12:59 -17.55864 26.53133 38977 ft 487 kts 343°
2026-05-01 12:59 -17.46018 26.50613 38980 ft 487 kts 344°
2026-05-01 13:00 -17.36120 26.48085 38979 ft 488 kts 344°
2026-05-01 13:01 -17.26266 26.45571 38977 ft 488 kts 344°
2026-05-01 13:02 -17.16362 26.42988 38977 ft 488 kts 343°
2026-05-01 13:07 -16.43995 26.23394 38973 ft 489 kts 343°
2026-05-01 13:08 -16.37404 26.21612 38973 ft 488 kts 343°
2026-05-01 13:08 -16.30843 26.19838 38972 ft 489 kts 344°
2026-05-01 13:09 -16.24252 26.18058 38970 ft 490 kts 344°
2026-05-01 13:09 -16.17634 26.16272 38972 ft 490 kts 344°
2026-05-01 13:10 -16.11026 26.14490 38969 ft 490 kts 344°
2026-05-01 13:10 -16.04461 26.12721 38968 ft 490 kts 344°
2026-05-01 13:11 -15.97851 26.10940 38965 ft 491 kts 344°
2026-05-01 13:11 -15.91221 26.09156 38967 ft 492 kts 344°
2026-05-01 13:12 -15.84637 26.07385 38965 ft 492 kts 344°
2026-05-01 13:12 -15.78007 26.05603 38966 ft 492 kts 344°
2026-05-01 13:13 -15.71375 26.03822 38960 ft 492 kts 344°
2026-05-01 13:13 -15.64724 26.02036 38971 ft 493 kts 344°
2026-05-01 13:14 -15.58109 26.00262 38968 ft 493 kts 344°
2026-05-01 13:14 -15.51448 25.98477 38957 ft 493 kts 344°
2026-05-01 13:15 -15.44828 25.96704 38960 ft 493 kts 344°
2026-05-01 13:15 -15.38173 25.94921 38965 ft 494 kts 344°
2026-05-01 13:16 -15.31540 25.93150 38953 ft 494 kts 344°
2026-05-01 13:16 -15.24888 25.91376 38956 ft 494 kts 344°
2026-05-01 13:17 -15.11553 25.87823 38961 ft 493 kts 344°
2026-05-01 13:18 -15.01593 25.85171 38952 ft 496 kts 345°
2026-05-01 13:18 -14.94904 25.83392 38956 ft 496 kts 345°
2026-05-01 13:19 -14.88208 25.81612 38947 ft 496 kts 345°
2026-05-01 13:20 -14.78175 25.78948 38941 ft 496 kts 345°
2026-05-01 13:20 -14.72610 25.77470 38948 ft 498 kts 345°
2026-05-01 13:21 -14.61439 25.74508 38954 ft 498 kts 345°
2026-05-01 13:21 -14.55845 25.73026 38957 ft 498 kts 345°
2026-05-01 13:22 -14.49131 25.71249 38949 ft 498 kts 345°
2026-05-01 13:22 -14.42392 25.69465 38951 ft 500 kts 345°
2026-05-01 13:23 -14.35646 25.67680 38945 ft 501 kts 345°
2026-05-01 13:23 -14.28883 25.65893 38949 ft 501 kts 345°
2026-05-01 13:24 -14.22172 25.64120 38932 ft 501 kts 345°
2026-05-01 13:25 -14.12066 25.61453 38937 ft 500 kts 345°
2026-05-01 13:25 -14.05320 25.59674 38941 ft 500 kts 345°
2026-05-01 13:26 -13.98575 25.57896 38931 ft 500 kts 345°
2026-05-01 13:26 -13.91821 25.56116 38943 ft 500 kts 345°
2026-05-01 13:27 -13.85077 25.54341 38936 ft 500 kts 345°
2026-05-01 13:27 -13.74996 25.51689 38929 ft 500 kts 345°
2026-05-01 13:28 -13.64879 25.49029 38931 ft 500 kts 345°
2026-05-01 13:29 -13.51366 25.45481 38942 ft 501 kts 345°
2026-05-01 13:31 -13.31121 25.40177 38934 ft 501 kts 345°
2026-05-01 13:32 -13.14190 25.35749 38932 ft 502 kts 345°
2026-05-01 13:33 -12.97299 25.31338 38929 ft 502 kts 345°
2026-05-01 13:34 -12.83753 25.27805 38921 ft 502 kts 345°
2026-05-01 13:35 -12.73585 25.25155 38916 ft 502 kts 345°
2026-05-01 13:36 -12.63457 25.22518 38919 ft 502 kts 345°
2026-05-01 13:36 -12.53292 25.19874 38922 ft 502 kts 345°
2026-05-01 13:37 -12.46502 25.18109 38914 ft 503 kts 345°
2026-05-01 13:37 -12.39716 25.16346 38915 ft 503 kts 345°
2026-05-01 13:38 -12.29579 25.13714 38916 ft 503 kts 345°
2026-05-01 13:39 -12.22787 25.11952 38926 ft 503 kts 345°
2026-05-01 13:39 -12.15996 25.10191 38921 ft 504 kts 345°
2026-05-01 13:40 -12.09200 25.08430 38924 ft 504 kts 345°
2026-05-01 13:40 -12.02394 25.06666 38919 ft 504 kts 345°
2026-05-01 13:41 -11.95641 25.04917 38934 ft 504 kts 345°
2026-05-01 13:41 -11.88806 25.03147 38924 ft 504 kts 346°
2026-05-01 13:42 -11.82049 25.01400 38938 ft 504 kts 346°
2026-05-01 13:42 -11.75243 24.99640 38930 ft 504 kts 346°
2026-05-01 13:43 -11.68445 24.97883 38939 ft 504 kts 346°
2026-05-01 13:43 -11.61652 24.96129 38928 ft 504 kts 346°
2026-05-01 13:44 -11.54840 24.94370 38932 ft 504 kts 346°
2026-05-01 13:44 -11.48038 24.92615 38925 ft 504 kts 346°
2026-05-01 13:45 -11.41276 24.90868 38920 ft 504 kts 346°
2026-05-01 13:45 -11.34479 24.89113 38909 ft 504 kts 346°
2026-05-01 13:46 -11.27672 24.87357 38909 ft 504 kts 346°
2026-05-01 13:46 -11.20865 24.85602 38908 ft 504 kts 346°
2026-05-01 13:47 -11.14051 24.83847 38916 ft 504 kts 346°
2026-05-01 13:47 -11.07243 24.82094 38900 ft 504 kts 346°
2026-05-01 13:48 -11.00466 24.80349 38903 ft 504 kts 346°
2026-05-01 13:48 -10.93659 24.78596 38903 ft 504 kts 346°
2026-05-01 13:49 -10.86848 24.76844 38896 ft 504 kts 346°
2026-05-01 13:49 -10.80072 24.75103 38883 ft 504 kts 346°
2026-05-01 13:50 -10.73264 24.73353 38892 ft 504 kts 346°
2026-05-01 13:50 -10.66453 24.71604 38891 ft 504 kts 346°
2026-05-01 13:51 -10.59650 24.69857 38883 ft 504 kts 346°
2026-05-01 13:51 -10.52838 24.68109 38883 ft 504 kts 346°
2026-05-01 13:52 -10.46033 24.66364 38871 ft 504 kts 346°
2026-05-01 13:52 -10.39269 24.64630 38875 ft 504 kts 346°
2026-05-01 13:53 -10.32454 24.62883 38876 ft 504 kts 346°
2026-05-01 13:53 -10.22241 24.60267 38874 ft 503 kts 346°
2026-05-01 13:54 -10.15453 24.58530 38871 ft 503 kts 346°
2026-05-01 13:54 -10.08649 24.56789 38878 ft 503 kts 346°
2026-05-01 13:55 -10.01904 24.55064 38869 ft 503 kts 346°
2026-05-01 13:55 -9.95109 24.53330 38873 ft 503 kts 346°
2026-05-01 13:56 -9.88325 24.51599 38864 ft 502 kts 346°
2026-05-01 13:56 -9.81545 24.49869 38878 ft 502 kts 346°
2026-05-01 13:57 -9.75915 24.48434 38878 ft 502 kts 346°
2026-05-01 13:57 -9.67985 24.46413 38868 ft 502 kts 346°
2026-05-01 13:58 -9.61254 24.44698 38883 ft 501 kts 346°
2026-05-01 13:58 -9.54487 24.42975 38883 ft 501 kts 346°
2026-05-01 13:59 -9.47719 24.41253 38891 ft 501 kts 346°
2026-05-01 13:59 -9.40961 24.39534 38880 ft 501 kts 346°
2026-05-01 14:00 -9.34186 24.37810 38907 ft 502 kts 346°
2026-05-01 14:00 -9.27443 24.36096 38909 ft 502 kts 346°
2026-05-01 14:01 -9.20659 24.34373 38911 ft 501 kts 346°
2026-05-01 14:01 -9.13890 24.32612 38910 ft 501 kts 345°
2026-05-01 14:02 -9.07154 24.30775 38917 ft 501 kts 345°
2026-05-01 14:02 -9.00447 24.28948 38923 ft 501 kts 345°
2026-05-01 14:03 -8.93708 24.27127 38924 ft 499 kts 345°
2026-05-01 14:03 -8.87000 24.25322 38919 ft 498 kts 345°
2026-05-01 14:04 -8.80296 24.23520 38927 ft 498 kts 345°
2026-05-01 14:04 -8.74723 24.22022 38924 ft 498 kts 345°
2026-05-01 14:05 -8.66934 24.19929 38923 ft 498 kts 345°
2026-05-01 14:05 -8.61353 24.18430 38922 ft 499 kts 345°
2026-05-01 14:06 -8.54618 24.16621 38922 ft 501 kts 345°
2026-05-01 14:06 -8.47863 24.14808 38921 ft 502 kts 345°
2026-05-01 14:07 -8.41155 24.13008 38919 ft 502 kts 345°
2026-05-01 14:08 -8.31020 24.10289 38915 ft 502 kts 345°
2026-05-01 14:08 -8.24289 24.08484 38918 ft 499 kts 346°
2026-05-01 14:09 -8.17586 24.06688 38911 ft 497 kts 345°
2026-05-01 14:09 -8.10864 24.04887 38913 ft 500 kts 345°
2026-05-01 14:10 -8.04160 24.03092 38916 ft 501 kts 345°
2026-05-01 14:10 -7.97374 24.01415 38909 ft 500 kts 347°
2026-05-01 14:11 -7.90612 23.99910 38903 ft 499 kts 348°
2026-05-01 14:11 -7.80435 23.97621 38908 ft 499 kts 348°
2026-05-01 14:12 -7.73663 23.96069 38904 ft 499 kts 347°
2026-05-01 14:12 -7.66886 23.94510 38898 ft 499 kts 348°
2026-05-01 14:13 -7.60114 23.92953 38900 ft 499 kts 348°
2026-05-01 14:13 -7.53336 23.91396 38904 ft 500 kts 348°
2026-05-01 14:14 -7.46584 23.89845 38893 ft 500 kts 348°
2026-05-01 14:14 -7.39793 23.88287 38893 ft 500 kts 348°
2026-05-01 14:15 -7.32997 23.86729 38895 ft 500 kts 348°
2026-05-01 14:15 -7.26204 23.85171 38895 ft 500 kts 348°
2026-05-01 14:16 -7.19429 23.83548 38887 ft 500 kts 346°
2026-05-01 14:16 -7.12674 23.81823 38889 ft 500 kts 346°
2026-05-01 14:17 -7.05962 23.80113 38884 ft 500 kts 346°
2026-05-01 14:17 -6.99204 23.78410 38893 ft 500 kts 346°
2026-05-01 14:18 -6.92431 23.76713 38877 ft 501 kts 346°
2026-05-01 14:18 -6.86798 23.75302 38876 ft 502 kts 346°
2026-05-01 14:19 -6.78910 23.73327 38875 ft 502 kts 346°
2026-05-01 14:19 -6.72132 23.71629 38880 ft 502 kts 346°
2026-05-01 14:20 -6.61959 23.69082 38874 ft 502 kts 346°
2026-05-01 14:21 -6.55185 23.67387 38876 ft 501 kts 347°
2026-05-01 14:21 -6.48456 23.65704 38870 ft 501 kts 347°
2026-05-01 14:22 -6.38299 23.63163 38874 ft 501 kts 347°
2026-05-01 14:22 -6.31527 23.61470 38877 ft 501 kts 347°
2026-05-01 14:23 -6.24754 23.59777 38870 ft 501 kts 346°
2026-05-01 14:23 -6.17988 23.58087 38864 ft 501 kts 346°
2026-05-01 14:24 -6.11255 23.56405 38862 ft 501 kts 346°
2026-05-01 14:24 -6.04437 23.55051 38870 ft 500 kts 351°
2026-05-01 14:25 -5.97553 23.53973 38868 ft 500 kts 352°
2026-05-01 14:25 -5.90681 23.52864 38871 ft 501 kts 351°
2026-05-01 14:26 -5.80347 23.51095 38869 ft 501 kts 351°
2026-05-01 14:27 -5.73469 23.49899 38863 ft 501 kts 351°
2026-05-01 14:27 -5.66642 23.48714 38870 ft 501 kts 351°
2026-05-01 14:28 -5.56328 23.46928 38871 ft 501 kts 351°
2026-05-01 14:28 -5.49442 23.45746 38869 ft 501 kts 351°
2026-05-01 14:29 -5.42606 23.44579 38871 ft 501 kts 351°
2026-05-01 14:30 -5.28860 23.42231 38872 ft 500 kts 351°
2026-05-01 14:31 -5.18607 23.40480 38877 ft 499 kts 351°
2026-05-01 14:31 -5.11773 23.39314 38876 ft 498 kts 351°
2026-05-01 14:32 -5.04926 23.38149 38870 ft 498 kts 351°
2026-05-01 14:32 -4.98082 23.36979 38877 ft 498 kts 351°
2026-05-01 14:33 -4.91277 23.35817 38881 ft 499 kts 351°
2026-05-01 14:33 -4.84436 23.34650 38877 ft 498 kts 351°
2026-05-01 14:34 -4.77575 23.33480 38878 ft 499 kts 351°
2026-05-01 14:34 -4.70770 23.32319 38876 ft 499 kts 351°
2026-05-01 14:35 -4.63918 23.31151 38877 ft 499 kts 351°
2026-05-01 14:35 -4.57068 23.29983 38881 ft 499 kts 351°
2026-05-01 14:36 -4.50206 23.28814 38878 ft 501 kts 351°
2026-05-01 14:36 -4.43314 23.27640 38873 ft 503 kts 351°
2026-05-01 14:37 -4.36448 23.26471 38871 ft 503 kts 351°
2026-05-01 14:37 -4.29536 23.25293 38868 ft 503 kts 351°
2026-05-01 14:38 -4.22639 23.24119 38868 ft 503 kts 351°
2026-05-01 14:38 -4.15780 23.22951 38872 ft 503 kts 351°
2026-05-01 14:39 -4.08875 23.21775 38870 ft 503 kts 351°
2026-05-01 14:39 -4.02210 23.19681 38868 ft 504 kts 333°
2026-05-01 14:40 -3.96004 23.16405 38868 ft 504 kts 331°
2026-05-01 14:40 -3.89891 23.12937 38869 ft 505 kts 330°